Temp
19 19 20 19 17 13 16 19 19 21 20 20 21 20 18 18 19 17 20 19 19 19 19 18 18 18 18 19 19 19 19 19 19 19 18 18 18 17 17 17 17 17 17 17 17 17 16 16 16
19 19 20 19 14 15 16 17 20 20 21 21 21 20 19 18 20 19 19 19 18 18 18 18 18 18 18 18 18 18 18 18 18 18 18 18 17 17 17 17 17 17 17 17 17 17 17 16 16
19 20 20 11 10 15 17 19 20 20 21 21 20 19 19 19 19 18 17 17 17 17 17 17 17 17 18 18 18 18 17 17 18 17 17 17 17 17 16 16 17 17 17 17 16 17 17 16 16
20 20 18 14 18 18 19 19 20 19 21 21 20 18 19 17 18 16 16 16 17 16 16 16 16 16 16 17 17 17 17 17 17 17 17 17 16 16 16 16 16 16 16 16 16 16 16 16 16
20 19 13 14 16 16 17 19 20 19 19 19 19 18 18 15 16 17 16 16 16 16 16 15 15 15 15 15 15 15 16 16 17 17 16 16 16 16 16 16 16 16 16 16 16 16 16 16 15
19 16 13 15 17 17 18 20 20 19 19 19 19 18 15 15 17 16 17 17 16 15 15 15 15 15 15 15 15 15 15 15 15 15 16 16 16 16 15 15 15 16 16 16 16 16 16 16 15
15 11 13 15 16 18 19 20 19 19 19 19 19 15 14 16 16 16 17 16 16 15 15 14 15 15 15 15 15 15 15 15 15 15 15 15 15 15 15 15 15 15 16 16 16 16 16 15 15
19 11 15 15 16 18 19 20 19 20 19 19 19 16 14 15 16 16 17 17 16 15 15 14 14 15 16 16 15 15 14 14 15 15 15 15 15 14 15 15 15 15 15 15 16 16 16 15 15
18 12 13 17 16 19 19 19 19 19 19 18 17 17 15 15 16 17 17 17 16 16 16 15 15 15 15 15 15 15 15 14 14 14 13 14 14 15 14 14 14 15 14 15 15 15 15 15 15
14 11 14 16 17 18 19 19 19 19 17 15 15 15 15 15 16 18 17 16 16 16 16 16 15 16 16 16 16 15 15 15 15 15 14 13 13 14 14 15 14 14 14 14 14 15 15 15 15
14 14 15 18 19 19 19 18 19 17 17 17 14 15 15 15 16 16 15 14 14 15 15 16 16 16 16 16 16 16 16 16 16 15 15 15 14 14 13 14 15 14 14 14 14 14 14 15 15
16 16 16 18 19 18 17 18 18 18 16 18 17 15 15 16 16 14 14 14 14 14 15 15 16 16 16 15 15 15 15 15 15 15 15 15 15 15 14 13 13 14 14 14 14 14 14 14 15
16 16 17 17 18 18 18 18 18 14 16 16 15 14 15 15 14 13 13 14 14 15 15 16 16 16 16 15 15 15 15 15 15 15 15 15 15 15 15 15 14 13 13 14 14 14 14 14 14
15 16 16 17 17 17 17 17 17 12 14 14 14 13 13 12 12 12 13 14 14 15 15 15 15 15 15 15 15 14 14 15 15 15 15 15 15 15 15 15 15 14 13 13 13 14 14 14 14
16 15 13 16 17 15 17 16 14 14 13 12 12 11 11 11 11 11 12 12 13 14 14 15 15 15 15 15 15 14 14 14 14 15 15 15 15 15 15 14 15 15 15 14 13 13 13 14 14
14 13 13 15 15 16 16 13 15 14 13 9 10 10 10 9 10 10 10 11 12 12 14 14 13 13 14 14 14 14 14 14 14 14 15 14 14 14 14 14 14 14 14 14 14 13 13 13 14
10 12 13 14 14 15 14 14 11 11 12 8 9 9 9 8 8 8 9 10 11 12 13 12 12 13 14 14 14 13 13 13 13 13 13 13 12 11 11 12 13 13 13 13 12 13 14 13 13
12 12 12 13 15 14 13 12 7 9 9 8 8 8 8 7 7 7 8 9 10 11 11 11 11 13 14 14 13 13 13 12 11 11 10 9 9 9 10 10 11 11 11 12 12 12 12 14 13
13 12 12 12 12 14 11 11 9 9 8 7 7 7 7 7 6 6 7 8 9 10 11 11 12 12 13 13 12 12 11 11 10 10 10 9 9 8 8 9 9 10 10 10 10 10 12 12 13
11 11 10 11 11 12 11 11 8 6 6 7 7 7 7 6 5 6 7 7 8 8 9 10 11 12 11 10 10 8 8 9 9 8 8 8 8 8 7 7 8 8 9 9 10 10 9 11 12
10 10 10 11 12 13 12 11 9 7 6 7 7 7 6 6 5 5 5 6 7 8 9 9 9 10 9 9 9 8 9 9 9 8 7 7 7 7 6 7 7 6 7 7 7 9 9 10 11
10 10 11 12 12 10 11 9 11 6 5 6 5 5 6 5 4 4 5 5 6 7 8 8 9 9 9 8 8 7 6 6 6 6 6 6 6 7 6 6 6 3 3 4 6 7 8 9 10
10 11 11 11 10 10 10 9 9 5 5 5 4 5 5 4 4 4 5 5 6 7 7 8 7 7 8 8 7 6 6 5 6 5 5 5 6 6 5 5 5 3 2 2 3 6 7 8 9
11 11 10 7 8 9 9 10 10 5 6 6 4 5 4 4 4 4 4 4 5 6 6 6 7 8 8 7 7 6 5 4 4 5 5 5 5 4 5 4 4 2 1 2 2 3 4 5 8
12 11 10 10 9 9 10 9 12 9 7 6 5 4 4 4 3 3 3 4 5 5 6 7 7 7 7 6 6 5 4 4 4 4 4 4 2 3 3 3 4 3 2 2 3 3 3 5 5
10 10 7 9 9 9 9 8 9 5 5 7 5 5 4 3 3 3 3 3 4 4 5 6 5 6 5 5 5 4 3 4 3 3 3 1 1 2 2 2 2 3 2 3 3 3 4 5 6
10 9 11 9 8 7 8 9 6 4 4 4 3 3 3 3 2 2 2 3 3 3 3 3 4 3 4 4 4 4 3 3 2 2 2 1 2 2 2 2 2 3 3 4 3 4 5 6 6
10 10 9 8 10 10 9 8 9 4 4 3 2 3 3 3 2 2 2 2 2 2 2 2 2 3 3 3 3 3 3 2 1 1 1 0 1 1 2 2 3 4 3 5 3 4 6 5 6
9 8 10 10 9 11 10 9 8 6 5 4 3 3 3 3 2 2 2 1 1 0 1 2 2 2 2 2 2 2 2 2 1 1 0 -0 0 0 1 1 2 2 3 3 3 4 6 6 6
10 10 10 9 9 8 9 11 4 5 5 4 4 4 3 3 2 1 1 0 -0 0 1 1 1 1 2 2 2 2 1 1 -0 -0 -0 -0 -0 0 0 0 1 1 1 1 1 4 6 6 7
Height
1504 1504 1503 1502 1512 1518 1526 1517 1509 1505 1509 1506 1505 1507 1513 1518 1522 1537 1527 1524 1523 1523 1523 1524 1524 1524 1525 1525 1525 1526 1526 1526 1526 1526 1525 1525 1526 1526 1526 1526 1525 1525 1525 1525 1525 1525 1526 1527 1527
1503 1504 1504 1503 1521 1534 1527 1511 1506 1503 1505 1507 1508 1511 1515 1523 1522 1524 1526 1525 1524 1525 1525 1524 1524 1524 1524 1526 1527 1527 1527 1527 1526 1526 1527 1526 1526 1526 1525 1525 1526 1526 1525 1525 1526 1525 1525 1526 1526
1503 1503 1505 1512 1531 1532 1524 1507 1504 1504 1505 1506 1511 1514 1517 1523 1524 1527 1528 1527 1525 1525 1525 1526 1525 1525 1526 1526 1527 1527 1527 1527 1526 1526 1527 1527 1527 1527 1526 1526 1526 1525 1525 1525 1526 1525 1525 1525 1525
1503 1504 1508 1519 1520 1514 1510 1504 1504 1505 1507 1506 1510 1514 1521 1524 1526 1527 1527 1527 1525 1524 1524 1524 1523 1522 1525 1525 1526 1527 1528 1527 1526 1526 1526 1527 1527 1526 1526 1525 1526 1525 1524 1524 1525 1525 1525 1525 1524
1504 1504 1518 1524 1523 1515 1508 1506 1506 1506 1508 1509 1509 1518 1521 1526 1527 1527 1526 1526 1524 1524 1524 1523 1523 1522 1522 1522 1524 1525 1526 1526 1526 1526 1526 1526 1525 1526 1526 1525 1525 1524 1524 1524 1524 1524 1524 1524 1524
1504 1508 1527 1529 1518 1511 1506 1505 1505 1506 1509 1510 1513 1516 1528 1529 1528 1527 1526 1526 1525 1525 1526 1525 1525 1524 1523 1523 1523 1523 1522 1521 1522 1523 1525 1525 1524 1524 1524 1525 1524 1523 1523 1523 1523 1523 1523 1523 1523
1506 1515 1525 1522 1519 1511 1506 1506 1507 1508 1509 1512 1514 1520 1530 1528 1527 1528 1526 1525 1526 1525 1526 1526 1526 1525 1525 1524 1523 1522 1522 1522 1522 1522 1521 1521 1522 1523 1522 1522 1522 1522 1522 1521 1522 1521 1522 1522 1522
1506 1511 1521 1520 1520 1514 1506 1506 1509 1508 1511 1514 1515 1519 1528 1529 1528 1527 1527 1526 1525 1526 1526 1525 1524 1525 1524 1523 1523 1523 1523 1522 1521 1521 1520 1520 1520 1520 1521 1520 1519 1520 1520 1520 1520 1520 1520 1520 1519
1506 1521 1528 1517 1518 1510 1507 1508 1509 1510 1510 1512 1515 1517 1523 1527 1527 1527 1527 1527 1526 1526 1525 1525 1524 1524 1524 1524 1524 1522 1522 1523 1521 1520 1519 1519 1518 1517 1517 1518 1518 1517 1517 1518 1518 1518 1518 1518 1517
1506 1522 1518 1510 1508 1506 1508 1508 1509 1512 1512 1517 1515 1520 1524 1526 1526 1525 1525 1526 1527 1527 1526 1525 1524 1524 1524 1523 1523 1522 1521 1520 1519 1519 1518 1517 1516 1515 1514 1514 1514 1515 1514 1514 1516 1516 1516 1515 1515
1507 1513 1509 1505 1505 1506 1506 1509 1510 1510 1514 1512 1512 1517 1521 1524 1525 1524 1524 1526 1526 1526 1526 1524 1523 1523 1522 1521 1520 1519 1518 1517 1516 1515 1513 1513 1513 1512 1511 1510 1510 1510 1512 1512 1512 1513 1512 1513 1512
1509 1507 1506 1504 1504 1504 1505 1506 1509 1510 1513 1514 1515 1517 1520 1522 1522 1523 1523 1524 1524 1524 1525 1523 1522 1521 1520 1518 1516 1515 1514 1513 1512 1511 1509 1508 1507 1507 1506 1507 1506 1505 1506 1507 1509 1508 1509 1509 1509
1508 1506 1505 1505 1504 1504 1504 1505 1506 1509 1511 1514 1516 1519 1520 1521 1522 1523 1523 1523 1523 1522 1522 1522 1520 1518 1516 1514 1513 1512 1511 1510 1508 1506 1504 1502 1501 1501 1500 1501 1501 1501 1501 1501 1503 1504 1504 1504 1505
1509 1507 1504 1503 1504 1504 1504 1506 1507 1514 1511 1513 1515 1518 1520 1522 1523 1523 1522 1522 1522 1520 1520 1519 1518 1516 1514 1512 1510 1508 1507 1506 1504 1502 1500 1497 1495 1493 1493 1493 1494 1496 1497 1496 1496 1498 1499 1499 1500
1507 1509 1506 1500 1501 1503 1503 1508 1507 1509 1512 1511 1515 1517 1518 1520 1521 1522 1521 1521 1519 1518 1517 1517 1516 1515 1513 1510 1508 1505 1502 1500 1498 1496 1495 1492 1490 1487 1485 1485 1485 1487 1489 1491 1491 1491 1492 1493 1494
1509 1510 1514 1501 1499 1500 1502 1509 1500 1505 1507 1511 1513 1517 1518 1519 1519 1521 1521 1520 1518 1517 1516 1516 1514 1512 1509 1505 1503 1501 1499 1496 1493 1490 1488 1486 1483 1480 1477 1476 1477 1479 1478 1479 1483 1484 1484 1484 1486
1516 1519 1513 1507 1499 1501 1503 1503 1500 1502 1501 1508 1512 1515 1517 1519 1520 1521 1520 1519 1516 1515 1514 1513 1510 1506 1503 1500 1499 1496 1494 1491 1489 1486 1483 1479 1476 1473 1470 1467 1468 1469 1469 1470 1472 1474 1476 1477 1478
1517 1517 1513 1510 1502 1502 1505 1504 1504 1505 1502 1502 1508 1513 1516 1518 1520 1520 1519 1517 1515 1514 1513 1510 1507 1502 1498 1495 1494 1492 1488 1486 1483 1480 1477 1473 1469 1467 1464 1461 1459 1459 1458 1460 1463 1465 1466 1467 1470
1510 1513 1515 1508 1501 1502 1505 1504 1504 1504 1506 1505 1507 1511 1514 1516 1517 1516 1516 1516 1515 1512 1510 1505 1502 1497 1495 1493 1488 1486 1483 1481 1479 1476 1473 1469 1465 1461 1457 1456 1453 1452 1449 1450 1453 1454 1457 1458 1461
1508 1511 1515 1506 1500 1502 1501 1501 1504 1504 1503 1502 1503 1507 1510 1513 1514 1514 1514 1513 1512 1509 1506 1502 1497 1495 1493 1491 1486 1481 1477 1474 1471 1467 1466 1464 1461 1457 1453 1451 1447 1445 1441 1442 1444 1446 1448 1450 1453
1507 1508 1508 1509 1502 1501 1501 1500 1501 1505 1504 1504 1505 1507 1508 1510 1511 1511 1512 1511 1509 1506 1502 1498 1496 1493 1491 1487 1483 1478 1476 1471 1466 1463 1460 1457 1453 1450 1447 1445 1442 1438 1436 1434 1435 1437 1440 1442 1444
1507 1500 1501 1503 1507 1516 1503 1514 1494 1501 1503 1504 1504 1506 1508 1509 1509 1510 1509 1508 1506 1503 1501 1498 1495 1492 1489 1483 1479 1474 1470 1464 1463 1457 1454 1452 1449 1444 1441 1439 1435 1432 1430 1428 1427 1428 1430 1434 1433
1500 1496 1499 1501 1508 1509 1507 1514 1493 1500 1505 1502 1503 1505 1507 1508 1508 1508 1507 1504 1501 1500 1499 1497 1494 1490 1485 1480 1476 1472 1469 1464 1459 1454 1449 1446 1442 1438 1435 1432 1429 1426 1424 1421 1419 1418 1420 1422 1424
1490 1496 1502 1510 1513 1516 1503 1506 1478 1497 1489 1495 1502 1505 1506 1507 1508 1508 1506 1503 1500 1499 1498 1494 1489 1485 1482 1478 1474 1471 1467 1461 1456 1450 1443 1437 1435 1432 1428 1425 1422 1419 1416 1414 1412 1410 1409 1410 1411
1489 1497 1511 1513 1517 1504 1493 1501 1468 1480 1482 1483 1488 1497 1503 1506 1507 1506 1505 1502 1499 1496 1493 1488 1485 1483 1479 1476 1472 1469 1464 1459 1452 1444 1437 1432 1429 1426 1421 1417 1414 1411 1408 1405 1403 1401 1399 1399 1399
1488 1490 1506 1505 1509 1499 1494 1494 1475 1483 1480 1480 1488 1495 1499 1502 1504 1503 1503 1500 1497 1493 1488 1486 1485 1483 1478 1474 1470 1466 1462 1455 1449 1442 1436 1433 1427 1420 1415 1410 1406 1402 1398 1395 1393 1389 1388 1388 1386
1485 1489 1479 1493 1498 1505 1492 1480 1483 1484 1485 1485 1488 1494 1497 1499 1501 1501 1500 1498 1495 1492 1488 1487 1484 1480 1476 1471 1467 1463 1459 1452 1445 1438 1434 1429 1424 1416 1411 1405 1399 1394 1389 1387 1384 1379 1376 1375 1373
1473 1475 1489 1493 1491 1492 1484 1483 1473 1486 1486 1485 1489 1491 1494 1496 1498 1498 1497 1496 1494 1492 1489 1486 1482 1478 1473 1468 1464 1459 1454 1448 1442 1435 1429 1425 1419 1412 1405 1398 1392 1384 1379 1376 1373 1368 1366 1361 1359
1476 1478 1474 1473 1480 1474 1478 1477 1471 1475 1479 1484 1486 1488 1491 1493 1495 1496 1495 1494 1493 1491 1487 1483 1479 1473 1470 1465 1461 1455 1449 1444 1437 1432 1426 1420 1415 1408 1401 1394 1386 1379 1372 1368 1363 1358 1356 1351 1349
1466 1469 1468 1473 1478 1481 1477 1461 1471 1470 1473 1478 1483 1486 1488 1490 1494 1495 1494 1492 1490 1488 1485 1481 1476 1471 1466 1461 1457 1451 1445 1438 1433 1427 1422 1416 1410 1405 1397 1390 1383 1376 1367 1361 1356 1351 1346 1342 1342
Wind_Speed
7 8 7 1 4 5 1 2 2 1 4 4 11 10 11 7 3 5 6 6 8 10 9 5 1 1 2 1 0 1 1 1 1 1 1 1 1 1 1 2 2 2 2 2 3 3 5 6 6
6 7 4 2 5 4 4 3 4 1 15 19 15 9 7 3 8 8 11 11 12 13 12 9 4 2 3 3 2 1 1 1 2 3 3 2 3 3 2 2 2 4 4 3 4 5 4 5 6
6 5 3 4 3 4 4 4 2 3 10 4 5 9 5 4 10 5 11 13 14 14 14 12 9 5 3 2 2 2 2 2 2 3 5 5 5 4 4 4 4 4 5 4 4 5 5 6 7
5 3 5 4 1 3 3 3 3 4 9 13 12 7 8 7 6 9 13 14 12 14 13 11 9 6 2 2 3 4 4 3 3 4 5 6 7 6 6 6 6 5 6 5 5 6 5 6 7
4 3 4 4 4 5 4 5 4 3 4 8 2 5 7 13 13 14 15 15 13 13 12 11 9 6 4 3 3 4 5 6 8 8 7 7 7 8 8 8 7 7 7 6 6 6 6 7 8
4 3 5 2 3 4 5 8 3 7 9 11 11 9 8 8 11 13 13 10 8 9 9 10 11 12 8 3 2 1 1 2 3 6 9 10 9 9 9 9 9 9 9 8 7 7 7 8 10
6 4 4 2 2 2 3 5 4 4 4 5 7 5 11 18 16 14 8 8 6 6 6 9 10 9 7 7 4 4 4 5 5 5 5 6 9 11 10 11 11 11 11 10 10 9 9 10 11
4 4 2 2 3 3 2 2 3 6 2 9 9 6 7 23 23 19 15 13 10 10 9 8 7 5 6 6 6 7 8 6 5 6 7 8 8 9 12 14 13 13 13 13 12 11 11 12 14
4 4 1 3 4 3 2 2 4 4 9 7 6 21 25 24 21 15 11 10 10 11 12 12 11 10 11 9 10 12 12 12 10 10 10 10 10 10 11 14 16 16 14 14 14 14 13 15 16
5 4 7 4 3 3 2 3 5 4 8 11 24 25 26 23 18 12 10 9 9 8 7 7 9 10 10 11 12 13 13 15 14 15 17 16 15 14 13 14 15 18 18 17 17 16 16 17 18
3 5 4 4 8 5 1 3 2 12 1 13 28 29 27 21 14 9 11 12 11 10 8 8 10 14 17 17 17 17 17 16 15 15 15 16 18 17 17 15 16 17 20 21 20 20 20 20 21
1 3 4 5 9 6 5 5 4 7 1 15 24 29 26 19 14 11 11 10 8 7 8 10 14 17 19 19 19 18 18 18 17 17 18 18 19 19 19 20 18 18 18 23 24 24 24 24 23
2 3 6 6 8 6 2 3 4 8 14 23 25 24 21 16 13 12 11 8 6 6 9 12 16 19 20 20 20 20 20 20 20 20 20 21 21 21 22 21 23 21 20 21 25 26 26 25 25
5 6 9 5 5 5 4 1 2 10 23 26 26 23 19 15 12 10 8 5 3 5 8 13 15 18 19 20 21 20 20 20 21 21 22 25 26 25 24 25 24 27 27 25 24 27 30 28 25
5 4 6 5 5 5 10 3 8 21 25 29 25 22 19 15 11 7 6 4 5 7 11 11 15 18 20 21 22 23 23 22 22 22 23 25 27 28 29 27 26 27 29 30 29 30 30 33 29
3 3 2 4 1 4 13 8 2 27 31 27 25 21 17 13 10 7 5 5 6 8 9 12 14 17 20 22 24 24 23 24 25 27 28 28 26 27 28 29 29 28 31 32 36 32 34 35 35
5 4 3 5 4 3 5 6 3 30 34 26 25 21 16 12 8 6 5 5 7 8 10 13 16 20 24 26 26 26 24 24 25 26 28 29 29 27 26 28 28 29 32 35 31 35 38 37 38
4 4 4 4 1 2 4 9 5 15 25 29 27 20 16 12 8 4 4 4 7 9 12 16 20 24 27 30 29 27 26 27 29 29 30 28 27 26 26 26 28 27 30 34 36 28 37 37 39
1 2 4 4 6 1 6 8 9 12 16 23 25 22 17 12 8 3 2 6 8 10 13 17 21 26 28 29 31 29 30 29 29 29 29 30 31 30 31 26 24 27 29 31 34 38 27 38 35
5 3 7 7 6 6 6 9 4 7 6 24 30 24 20 13 8 2 1 6 10 13 15 18 21 24 26 28 29 31 34 34 35 35 34 33 32 30 29 29 27 23 26 29 30 34 39 30 39
5 5 5 6 5 2 5 5 5 1 6 15 23 22 17 13 9 4 2 7 10 14 17 20 22 23 25 27 29 30 31 34 37 37 37 36 36 34 31 31 29 27 26 29 28 29 36 37 37
3 7 8 5 2 5 2 5 4 5 5 9 19 19 16 12 7 3 3 8 12 15 17 18 20 22 24 27 30 32 34 37 38 40 39 36 35 35 35 36 34 30 28 29 28 27 32 42 36
7 7 7 4 4 1 2 3 4 7 5 11 15 20 15 11 7 3 3 7 12 14 16 18 19 22 24 27 29 32 34 34 36 37 39 38 36 36 36 38 36 34 31 30 30 29 31 39 50
5 5 5 4 3 5 8 7 6 7 6 8 10 18 15 11 6 1 4 8 10 12 15 17 20 23 25 27 29 31 33 34 35 36 39 41 39 37 38 40 38 35 32 33 30 31 32 35 45
5 6 1 2 2 7 4 6 12 2 4 14 21 25 18 11 7 2 4 8 11 14 17 20 22 24 25 27 28 30 31 32 34 35 39 40 41 40 41 41 41 37 35 35 32 31 36 38 38
8 8 5 6 5 4 3 7 5 2 3 14 20 23 17 11 5 1 6 10 13 16 18 20 21 22 24 26 28 29 31 33 33 34 36 36 38 41 41 40 40 40 37 39 34 32 36 42 48
6 8 8 2 2 2 4 5 1 5 6 15 22 20 15 10 6 1 6 10 13 15 18 19 20 22 24 26 28 30 31 32 34 34 34 34 35 38 41 38 40 39 36 39 36 34 39 44 48
8 7 2 1 8 13 5 5 6 7 10 10 12 17 15 10 7 2 6 9 11 13 16 17 19 22 24 27 29 31 32 31 33 35 35 34 35 37 39 40 39 42 38 40 35 33 35 39 42
2 3 4 3 4 10 8 6 1 10 12 11 12 18 16 11 8 4 5 8 10 13 16 18 20 23 25 27 29 30 32 32 32 34 36 35 35 36 37 39 39 39 38 38 36 33 34 38 38
2 5 6 6 7 3 5 16 2 7 11 19 16 18 15 10 6 4 6 8 12 14 18 20 21 23 25 26 28 30 32 32 32 35 36 35 35 35 36 35 36 37 38 37 35 33 32 30 31
Wind_Direction
336 342 343 312 58 68 356 280 252 285 68 70 108 113 104 63 64 146 356 3 42 59 49 39 53 83 55 3 129 136 130 92 37 358 329 298 267 250 286 314 340 350 327 286 264 237 232 240 247
340 352 358 16 82 67 285 251 209 182 144 111 87 100 81 70 73 62 46 54 68 57 45 39 56 49 39 355 343 1 40 27 4 335 311 287 265 259 254 276 307 316 311 297 268 259 246 243 248
348 17 24 82 96 148 192 224 210 37 155 66 106 65 66 20 58 59 57 76 75 70 58 55 50 34 26 5 340 339 6 3 352 329 312 293 270 259 254 262 281 294 297 293 275 262 258 247 245
351 76 65 77 14 267 248 273 146 118 79 91 113 68 85 46 75 78 94 95 94 87 82 80 77 74 58 12 336 332 331 329 325 324 312 295 276 262 252 254 268 283 285 282 280 271 259 252 247
8 65 62 84 291 276 286 307 171 106 101 109 98 89 79 72 102 111 114 118 112 99 88 87 78 74 90 99 67 30 357 341 334 325 313 293 277 267 257 254 259 275 283 281 273 269 262 253 248
49 60 58 147 259 293 304 16 51 89 109 109 104 97 59 105 146 120 129 127 113 102 82 65 57 51 57 69 87 69 16 3 2 348 329 310 290 267 257 257 264 272 276 279 275 270 263 258 250
106 80 179 206 257 312 279 13 65 102 91 55 116 83 113 114 124 132 140 131 126 113 122 75 56 43 36 31 24 351 341 334 331 324 322 312 301 285 262 251 261 269 272 273 273 268 261 257 256
91 90 111 265 221 225 321 69 107 107 76 112 119 146 146 124 124 126 124 114 107 98 91 84 72 48 32 2 355 350 358 349 334 335 320 306 297 288 281 267 258 262 268 271 271 269 262 257 257
99 64 163 242 162 249 19 88 52 89 132 88 105 126 141 138 136 138 129 116 103 86 77 74 66 53 40 21 6 1 341 326 325 320 321 322 302 288 281 276 272 264 262 267 269 267 262 258 257
93 110 211 218 215 237 109 127 151 113 113 96 107 129 149 149 150 159 144 120 104 95 77 50 35 20 5 351 346 347 344 344 336 315 310 313 316 313 287 278 276 273 265 259 263 264 261 256 258
133 166 205 251 230 224 280 100 131 132 218 159 146 146 155 159 156 145 120 104 90 75 52 28 11 358 346 339 333 322 317 317 311 310 311 305 294 296 298 288 270 273 275 268 262 262 259 258 258
49 251 223 281 237 190 184 154 150 194 355 172 155 153 155 157 145 126 108 97 83 61 31 10 353 345 342 339 336 336 332 327 324 319 312 304 297 296 284 283 282 268 265 272 271 266 263 258 257
159 315 313 309 241 222 259 220 204 126 138 154 154 154 152 148 138 128 115 102 74 37 6 352 349 345 347 346 342 338 335 331 326 321 317 312 306 295 286 280 276 272 269 261 268 269 266 261 258
322 308 297 307 261 227 185 245 199 142 148 148 154 152 147 142 135 130 119 111 68 22 358 356 349 349 347 342 335 330 328 328 326 323 318 312 305 298 288 277 269 268 272 269 261 262 267 264 260
309 318 317 252 230 239 192 279 233 161 162 150 154 150 150 150 146 131 109 76 40 18 11 345 344 346 341 340 336 331 330 327 323 319 317 313 306 298 292 285 269 261 260 266 266 261 257 259 254
335 71 344 294 185 267 165 244 187 172 165 152 153 152 152 145 141 126 98 57 35 18 356 347 344 343 342 344 339 332 330 326 321 320 318 316 310 301 291 285 280 267 255 251 260 259 257 255 253
359 250 231 305 226 23 183 268 145 173 165 149 159 157 154 144 136 111 73 42 22 2 346 342 348 348 346 344 340 334 332 330 327 325 324 321 317 311 299 289 282 274 261 252 245 257 258 255 253
228 237 253 236 272 129 264 261 161 173 157 156 161 160 156 151 139 100 53 22 8 355 348 354 354 349 347 341 337 335 338 334 335 336 337 335 330 323 311 301 292 282 270 256 246 246 260 254 252
53 305 297 289 272 295 256 260 167 171 155 153 165 166 162 156 146 128 28 5 360 355 357 358 354 351 344 338 337 339 342 338 337 338 339 337 338 332 323 312 302 291 281 269 253 241 252 256 253
194 232 277 286 285 175 278 267 151 168 187 175 174 175 173 165 161 171 9 357 2 7 4 1 356 350 346 343 343 343 342 340 340 342 344 343 339 334 328 323 319 311 285 275 262 249 239 255 250
197 187 213 222 323 271 322 281 182 192 160 184 185 179 177 175 173 171 0 3 6 6 6 3 359 354 348 344 341 342 337 338 339 340 341 345 339 336 337 331 328 321 305 285 274 256 241 243 253
226 211 220 221 168 236 87 276 279 188 167 178 178 178 172 169 165 153 12 3 8 10 6 2 356 352 350 346 342 342 341 339 339 339 341 339 336 334 333 330 329 323 315 295 282 270 253 237 248
223 185 209 181 172 9 189 289 238 113 191 202 186 181 173 169 170 168 7 8 7 1 359 358 357 355 352 349 344 340 337 336 335 338 335 336 338 334 334 332 331 325 314 304 289 276 265 245 236
137 92 59 53 92 263 179 181 216 193 203 180 180 183 174 170 173 172 359 1 4 359 356 357 357 353 350 347 345 340 336 335 335 336 336 337 335 332 330 327 325 322 318 307 294 283 267 259 243
144 125 220 254 188 240 198 192 253 295 208 182 175 179 173 172 177 193 342 357 359 358 357 356 353 350 348 347 344 340 337 336 337 339 337 335 334 335 332 326 323 318 318 308 295 283 268 260 261
193 173 173 199 196 246 141 230 253 164 79 168 159 162 162 166 175 266 345 356 358 357 356 355 351 347 346 346 344 341 338 338 340 341 337 333 333 333 332 328 324 322 319 310 297 288 284 269 258
190 206 190 117 54 41 228 283 142 107 100 127 141 158 163 168 181 246 341 349 352 352 356 352 348 347 345 346 344 343 340 341 341 341 338 334 330 331 332 328 323 320 320 314 300 290 288 276 266
189 162 97 122 228 246 254 267 238 197 176 161 159 165 167 174 189 261 329 341 346 350 350 350 347 346 347 346 344 344 345 341 342 342 340 337 332 334 331 330 323 320 317 310 300 296 289 280 262
157 193 209 185 175 233 259 260 237 198 185 174 171 177 177 180 194 241 309 330 341 347 348 349 347 348 347 346 344 344 344 342 342 343 341 338 335 335 333 333 329 326 323 316 304 294 284 278 265
211 271 191 210 226 253 235 254 321 195 175 172 176 182 179 185 200 252 303 325 337 345 347 349 349 347 346 344 341 342 342 343 343 344 343 340 338 335 335 333 335 331 327 322 316 307 283 282 273